QPF
0.12 0.14 0.21 0.22 0.17 0.16 0.16 0.15 0.17 0.20 0.19 0.14 0.12 0.13 0.14 0.12 0.10 0.10 0.11 0.12 0.12 0.12 0.11 0.14 0.13 0.15 0.15 0.14 0.10 0.08 0.07 0.06 0.07 0.07 0.07 0.07 0.09 0.11 0.11 0.10 0.09 0.05 0.04
0.07 0.09 0.13 0.16 0.16 0.13 0.12 0.12 0.13 0.14 0.15 0.15 0.17 0.21 0.24 0.17 0.11 0.11 0.11 0.11 0.11 0.11 0.12 0.15 0.15 0.14 0.13 0.11 0.09 0.09 0.09 0.10 0.09 0.09 0.09 0.09 0.12 0.14 0.14 0.12 0.09 0.05 0.04
0.03 0.05 0.06 0.08 0.11 0.12 0.12 0.11 0.12 0.11 0.11 0.14 0.18 0.20 0.24 0.19 0.16 0.15 0.14 0.12 0.13 0.14 0.14 0.17 0.17 0.16 0.13 0.12 0.10 0.08 0.09 0.10 0.11 0.10 0.11 0.10 0.11 0.13 0.10 0.08 0.07 0.05 0.05
0.01 0.03 0.02 0.04 0.09 0.12 0.11 0.12 0.11 0.09 0.08 0.09 0.17 0.21 0.22 0.21 0.19 0.16 0.13 0.14 0.15 0.15 0.17 0.23 0.23 0.17 0.14 0.12 0.08 0.06 0.07 0.08 0.09 0.13 0.15 0.18 0.19 0.15 0.09 0.07 0.06 0.06 0.07
0.01 0.02 0.02 0.04 0.09 0.12 0.11 0.11 0.10 0.09 0.08 0.08 0.14 0.23 0.26 0.24 0.21 0.15 0.14 0.17 0.18 0.17 0.22 0.27 0.19 0.14 0.12 0.07 0.05 0.04 0.05 0.06 0.07 0.10 0.07 0.09 0.11 0.10 0.07 0.06 0.05 0.05 0.07
0.01 0.03 0.05 0.07 0.08 0.10 0.10 0.10 0.09 0.08 0.08 0.08 0.10 0.16 0.21 0.21 0.19 0.17 0.16 0.18 0.16 0.16 0.20 0.17 0.12 0.08 0.05 0.03 0.03 0.04 0.04 0.06 0.07 0.04 0.04 0.05 0.05 0.05 0.05 0.05 0.05 0.05 0.06
0.00 0.02 0.04 0.05 0.05 0.06 0.09 0.10 0.10 0.09 0.08 0.08 0.08 0.11 0.14 0.14 0.14 0.15 0.14 0.14 0.13 0.12 0.10 0.08 0.06 0.04 0.02 0.02 0.03 0.03 0.03 0.04 0.03 0.02 0.04 0.04 0.03 0.03 0.03 0.03 0.04 0.04 0.04
0.01 0.02 0.03 0.03 0.03 0.05 0.07 0.08 0.08 0.09 0.10 0.10 0.11 0.12 0.11 0.10 0.11 0.11 0.11 0.09 0.08 0.07 0.06 0.05 0.03 0.03 0.02 0.02 0.02 0.03 0.03 0.02 0.01 0.01 0.02 0.02 0.02 0.01 0.01 0.02 0.03 0.02 0.02
0.02 0.03 0.06 0.02 0.02 0.05 0.11 0.13 0.14 0.15 0.15 0.15 0.16 0.12 0.09 0.08 0.08 0.09 0.08 0.07 0.06 0.05 0.05 0.04 0.03 0.02 0.01 0.01 0.02 0.02 0.02 0.01 0.01 0.01 0.01 0.02 0.01 0.01 0.01 0.01 0.01 0.01 0.01
0.02 0.02 0.05 0.04 0.03 0.04 0.09 0.15 0.17 0.16 0.16 0.14 0.12 0.10 0.08 0.07 0.07 0.07 0.05 0.05 0.04 0.04 0.05 0.06 0.04 0.01 0.00 0.01 0.02 0.01 0.01 0.01 0.00 0.01 0.02 0.02 0.01 0.01 0.01 0.01 0.01 0.01 0.01
0.02 0.01 0.01 0.03 0.04 0.03 0.03 0.05 0.08 0.09 0.10 0.11 0.11 0.10 0.11 0.11 0.09 0.08 0.06 0.10 0.06 0.04 0.04 0.03 0.01 0.00 0.01 0.01 0.02 0.03 0.02 0.01 0.01 0.01 0.01 0.01 0.01 0.01 0.02 0.02 0.01 0.01 0.01
0.02 0.01 0.01 0.02 0.01 0.01 0.02 0.03 0.06 0.07 0.07 0.09 0.09 0.06 0.09 0.12 0.10 0.07 0.09 0.08 0.05 0.03 0.02 0.03 0.03 0.02 0.01 0.02 0.03 0.03 0.01 0.01 0.02 0.02 0.03 0.02 0.01 0.01 0.01 0.02 0.03 0.03 0.02
0.02 0.03 0.02 0.01 0.01 0.02 0.03 0.03 0.05 0.05 0.06 0.06 0.06 0.06 0.08 0.08 0.08 0.05 0.08 0.08 0.05 0.04 0.05 0.05 0.05 0.04 0.03 0.04 0.04 0.02 0.01 0.01 0.02 0.02 0.05 0.04 0.02 0.02 0.02 0.03 0.04 0.04 0.03
0.00 0.01 0.01 0.00 0.01 0.02 0.02 0.02 0.04 0.03 0.04 0.05 0.05 0.05 0.07 0.08 0.08 0.09 0.10 0.08 0.08 0.08 0.10 0.08 0.06 0.05 0.05 0.06 0.03 0.01 0.01 0.01 0.02 0.03 0.05 0.04 0.02 0.02 0.02 0.03 0.04 0.05 0.04
0.01 0.01 0.01 0.01 0.01 0.01 0.02 0.03 0.02 0.02 0.03 0.04 0.05 0.07 0.08 0.10 0.10 0.10 0.10 0.09 0.06 0.07 0.08 0.07 0.07 0.06 0.06 0.06 0.05 0.04 0.04 0.02 0.03 0.03 0.03 0.03 0.02 0.01 0.03 0.04 0.04 0.06 0.05
0.00 0.01 0.02 0.01 0.01 0.01 0.02 0.04 0.04 0.02 0.03 0.05 0.07 0.09 0.09 0.11 0.11 0.11 0.11 0.11 0.06 0.05 0.05 0.06 0.07 0.11 0.09 0.08 0.07 0.08 0.08 0.06 0.04 0.04 0.05 0.06 0.04 0.03 0.03 0.05 0.06 0.08 0.08
0.00 0.01 0.02 0.02 0.01 0.01 0.02 0.02 0.03 0.02 0.02 0.04 0.07 0.06 0.08 0.10 0.11 0.11 0.11 0.09 0.07 0.06 0.04 0.03 0.05 0.07 0.09 0.09 0.09 0.09 0.07 0.06 0.06 0.06 0.08 0.08 0.07 0.05 0.05 0.05 0.05 0.07 0.07
0.01 0.01 0.02 0.01 0.01 0.01 0.03 0.03 0.02 0.02 0.03 0.04 0.05 0.06 0.05 0.05 0.06 0.09 0.09 0.08 0.08 0.06 0.05 0.06 0.06 0.08 0.09 0.09 0.07 0.05 0.04 0.05 0.06 0.08 0.09 0.10 0.10 0.10 0.08 0.07 0.06 0.06 0.07
0.00 0.01 0.01 0.01 0.02 0.02 0.01 0.03 0.04 0.05 0.05 0.06 0.05 0.07 0.06 0.04 0.05 0.07 0.07 0.07 0.08 0.08 0.07 0.05 0.08 0.11 0.12 0.10 0.04 0.04 0.04 0.05 0.07 0.06 0.08 0.09 0.10 0.12 0.11 0.11 0.09 0.07 0.07
0.01 0.00 0.01 0.01 0.01 0.02 0.03 0.05 0.06 0.05 0.04 0.04 0.05 0.06 0.06 0.07 0.08 0.10 0.08 0.06 0.06 0.09 0.10 0.08 0.10 0.15 0.15 0.12 0.06 0.07 0.08 0.05 0.06 0.08 0.12 0.12 0.11 0.11 0.14 0.15 0.13 0.11 0.07
0.01 0.01 0.01 0.01 0.02 0.04 0.06 0.08 0.09 0.06 0.04 0.03 0.04 0.03 0.03 0.05 0.06 0.09 0.09 0.09 0.08 0.10 0.10 0.08 0.10 0.13 0.12 0.10 0.11 0.11 0.09 0.07 0.08 0.12 0.12 0.10 0.08 0.08 0.10 0.10 0.10 0.11 0.10
0.01 0.01 0.01 0.01 0.02 0.03 0.07 0.08 0.09 0.06 0.04 0.03 0.02 0.02 0.02 0.03 0.04 0.07 0.07 0.07 0.09 0.11 0.10 0.10 0.10 0.11 0.11 0.11 0.12 0.13 0.12 0.11 0.10 0.07 0.06 0.07 0.07 0.07 0.06 0.07 0.08 0.10 0.10
0.02 0.01 0.01 0.03 0.03 0.04 0.05 0.07 0.09 0.07 0.06 0.04 0.03 0.03 0.03 0.03 0.03 0.05 0.05 0.05 0.07 0.07 0.10 0.11 0.09 0.09 0.10 0.10 0.10 0.11 0.14 0.14 0.09 0.07 0.06 0.07 0.05 0.06 0.06 0.06 0.07 0.10 0.12
0.01 0.01 0.01 0.02 0.03 0.03 0.05 0.08 0.08 0.08 0.07 0.05 0.04 0.04 0.03 0.02 0.01 0.02 0.02 0.03 0.05 0.05 0.07 0.08 0.08 0.09 0.11 0.09 0.09 0.10 0.11 0.11 0.09 0.08 0.08 0.07 0.06 0.06 0.06 0.05 0.06 0.08 0.10
0.00 0.00 0.01 0.01 0.03 0.03 0.04 0.06 0.07 0.07 0.06 0.04 0.03 0.03 0.04 0.03 0.01 0.01 0.01 0.02 0.04 0.05 0.05 0.05 0.07 0.08 0.09 0.09 0.10 0.11 0.12 0.13 0.11 0.09 0.07 0.08 0.08 0.08 0.06 0.06 0.06 0.08 0.07
0.00 0.01 0.01 0.01 0.02 0.03 0.05 0.05 0.04 0.03 0.03 0.03 0.03 0.04 0.03 0.03 0.02 0.01 0.02 0.03 0.03 0.03 0.03 0.04 0.05 0.05 0.07 0.08 0.09 0.10 0.11 0.12 0.13 0.14 0.10 0.08 0.07 0.07 0.07 0.07 0.08 0.07 0.05
MSLP
1012.08 1011.86 1011.74 1011.73 1011.79 1011.90 1011.99 1012.00 1011.91 1011.72 1011.44 1011.14 1010.86 1010.64 1010.50 1010.44 1010.43 1010.42 1010.39 1010.31 1010.19 1010.06 1009.93 1009.85 1009.84 1009.90 1010.03 1010.19 1010.37 1010.55 1010.73 1010.92 1011.15 1011.43 1011.79 1012.21 1012.67 1013.14 1013.58 1013.96 1014.27 1014.52 1014.72
1012.27 1012.13 1012.08 1012.11 1012.20 1012.28 1012.32 1012.28 1012.13 1011.90 1011.63 1011.36 1011.15 1011.01 1010.95 1010.96 1011.00 1011.02 1011.00 1010.94 1010.83 1010.71 1010.61 1010.55 1010.56 1010.62 1010.72 1010.84 1010.97 1011.09 1011.23 1011.40 1011.62 1011.94 1012.33 1012.78 1013.26 1013.72 1014.14 1014.47 1014.73 1014.92 1015.08
1012.40 1012.35 1012.37 1012.45 1012.55 1012.62 1012.63 1012.55 1012.37 1012.14 1011.88 1011.66 1011.51 1011.45 1011.46 1011.51 1011.58 1011.61 1011.58 1011.50 1011.39 1011.28 1011.19 1011.16 1011.18 1011.25 1011.33 1011.43 1011.52 1011.61 1011.72 1011.89 1012.13 1012.47 1012.89 1013.37 1013.86 1014.31 1014.69 1014.98 1015.19 1015.34 1015.47
1012.45 1012.48 1012.57 1012.70 1012.83 1012.92 1012.93 1012.84 1012.66 1012.44 1012.22 1012.06 1011.96 1011.96 1012.01 1012.10 1012.16 1012.18 1012.14 1012.04 1011.92 1011.81 1011.74 1011.73 1011.77 1011.85 1011.93 1012.01 1012.08 1012.15 1012.25 1012.41 1012.67 1013.02 1013.46 1013.95 1014.43 1014.86 1015.21 1015.46 1015.62 1015.74 1015.86
1012.41 1012.51 1012.67 1012.86 1013.05 1013.17 1013.21 1013.15 1013.00 1012.82 1012.64 1012.52 1012.48 1012.52 1012.60 1012.69 1012.74 1012.74 1012.67 1012.56 1012.44 1012.34 1012.30 1012.31 1012.37 1012.46 1012.55 1012.62 1012.66 1012.71 1012.79 1012.95 1013.20 1013.56 1014.01 1014.49 1014.95 1015.35 1015.66 1015.87 1016.00 1016.11 1016.23
1012.31 1012.46 1012.68 1012.94 1013.19 1013.38 1013.46 1013.45 1013.35 1013.22 1013.09 1013.02 1013.01 1013.07 1013.17 1013.25 1013.29 1013.27 1013.19 1013.07 1012.96 1012.89 1012.87 1012.92 1013.00 1013.10 1013.18 1013.22 1013.24 1013.26 1013.31 1013.44 1013.68 1014.03 1014.47 1014.93 1015.38 1015.75 1016.02 1016.21 1016.32 1016.42 1016.56
1012.21 1012.38 1012.65 1012.96 1013.27 1013.51 1013.66 1013.70 1013.66 1013.57 1013.49 1013.46 1013.48 1013.56 1013.65 1013.73 1013.77 1013.74 1013.66 1013.56 1013.47 1013.43 1013.45 1013.52 1013.62 1013.71 1013.77 1013.78 1013.75 1013.72 1013.73 1013.83 1014.05 1014.39 1014.81 1015.27 1015.70 1016.05 1016.31 1016.47 1016.58 1016.68 1016.82
1012.14 1012.31 1012.60 1012.94 1013.29 1013.59 1013.78 1013.87 1013.87 1013.83 1013.78 1013.78 1013.82 1013.91 1014.01 1014.09 1014.13 1014.12 1014.05 1013.98 1013.93 1013.92 1013.97 1014.05 1014.15 1014.23 1014.25 1014.21 1014.12 1014.04 1014.01 1014.08 1014.28 1014.61 1015.04 1015.49 1015.92 1016.27 1016.53 1016.68 1016.78 1016.88 1017.02
1012.15 1012.30 1012.57 1012.93 1013.29 1013.60 1013.82 1013.94 1013.96 1013.94 1013.92 1013.94 1014.00 1014.10 1014.21 1014.31 1014.36 1014.37 1014.34 1014.31 1014.29 1014.31 1014.38 1014.47 1014.55 1014.59 1014.56 1014.46 1014.32 1014.19 1014.13 1014.18 1014.37 1014.71 1015.15 1015.63 1016.08 1016.45 1016.71 1016.87 1016.96 1017.05 1017.18
1012.27 1012.37 1012.61 1012.94 1013.28 1013.58 1013.79 1013.91 1013.94 1013.93 1013.92 1013.94 1014.02 1014.14 1014.27 1014.39 1014.47 1014.52 1014.52 1014.52 1014.53 1014.57 1014.64 1014.71 1014.76 1014.76 1014.68 1014.54 1014.35 1014.19 1014.10 1014.15 1014.36 1014.72 1015.20 1015.71 1016.21 1016.61 1016.90 1017.06 1017.15 1017.21 1017.31
1012.47 1012.52 1012.72 1013.00 1013.30 1013.56 1013.74 1013.82 1013.84 1013.82 1013.82 1013.85 1013.94 1014.07 1014.23 1014.38 1014.50 1014.57 1014.60 1014.62 1014.65 1014.69 1014.74 1014.79 1014.81 1014.77 1014.65 1014.46 1014.26 1014.08 1014.00 1014.06 1014.29 1014.69 1015.21 1015.78 1016.32 1016.76 1017.08 1017.27 1017.35 1017.39 1017.44
1012.74 1012.75 1012.90 1013.13 1013.37 1013.57 1013.69 1013.74 1013.73 1013.69 1013.68 1013.72 1013.83 1013.98 1014.16 1014.34 1014.48 1014.57 1014.62 1014.65 1014.67 1014.70 1014.73 1014.74 1014.73 1014.65 1014.51 1014.32 1014.11 1013.94 1013.88 1013.96 1014.23 1014.66 1015.21 1015.82 1016.40 1016.89 1017.24 1017.45 1017.54 1017.56 1017.57
1013.03 1013.03 1013.14 1013.32 1013.49 1013.63 1013.70 1013.70 1013.65 1013.60 1013.59 1013.64 1013.75 1013.93 1014.12 1014.31 1014.46 1014.56 1014.62 1014.63 1014.64 1014.64 1014.64 1014.62 1014.58 1014.50 1014.35 1014.17 1013.98 1013.84 1013.80 1013.90 1014.18 1014.62 1015.19 1015.81 1016.42 1016.93 1017.32 1017.56 1017.67 1017.69 1017.68
1013.32 1013.34 1013.43 1013.56 1013.68 1013.76 1013.78 1013.74 1013.66 1013.60 1013.59 1013.64 1013.76 1013.94 1014.14 1014.33 1014.48 1014.57 1014.61 1014.61 1014.58 1014.55 1014.52 1014.49 1014.44 1014.35 1014.22 1014.07 1013.91 1013.79 1013.77 1013.88 1014.14 1014.56 1015.10 1015.70 1016.29 1016.82 1017.24 1017.52 1017.67 1017.72 1017.72
1013.59 1013.63 1013.73 1013.83 1013.92 1013.95 1013.93 1013.86 1013.78 1013.71 1013.69 1013.74 1013.86 1014.03 1014.22 1014.40 1014.53 1014.60 1014.61 1014.58 1014.53 1014.47 1014.43 1014.38 1014.33 1014.26 1014.16 1014.04 1013.91 1013.81 1013.78 1013.85 1014.06 1014.41 1014.87 1015.41 1015.96 1016.48 1016.92 1017.25 1017.46 1017.58 1017.64
1013.83 1013.91 1014.02 1014.11 1014.18 1014.19 1014.14 1014.06 1013.97 1013.90 1013.88 1013.92 1014.03 1014.17 1014.33 1014.48 1014.57 1014.62 1014.60 1014.55 1014.48 1014.41 1014.36 1014.32 1014.28 1014.23 1014.16 1014.06 1013.95 1013.84 1013.78 1013.78 1013.90 1014.13 1014.47 1014.91 1015.39 1015.87 1016.32 1016.70 1017.01 1017.23 1017.39
1014.02 1014.16 1014.28 1014.38 1014.43 1014.43 1014.38 1014.30 1014.22 1014.15 1014.12 1014.14 1014.21 1014.31 1014.43 1014.52 1014.58 1014.59 1014.56 1014.50 1014.43 1014.36 1014.32 1014.29 1014.27 1014.24 1014.19 1014.11 1013.99 1013.85 1013.72 1013.64 1013.63 1013.71 1013.91 1014.21 1014.59 1015.03 1015.49 1015.93 1016.33 1016.67 1016.96
1014.19 1014.36 1014.50 1014.60 1014.66 1014.66 1014.62 1014.55 1014.47 1014.40 1014.36 1014.35 1014.37 1014.41 1014.46 1014.50 1014.52 1014.50 1014.46 1014.41 1014.35 1014.31 1014.28 1014.28 1014.28 1014.26 1014.22 1014.13 1013.99 1013.81 1013.61 1013.42 1013.27 1013.21 1013.25 1013.41 1013.69 1014.06 1014.51 1015.00 1015.50 1015.97 1016.39
1014.32 1014.52 1014.67 1014.78 1014.84 1014.86 1014.84 1014.79 1014.72 1014.65 1014.58 1014.52 1014.48 1014.45 1014.43 1014.41 1014.38 1014.35 1014.31 1014.28 1014.26 1014.25 1014.26 1014.27 1014.29 1014.28 1014.23 1014.12 1013.95 1013.72 1013.44 1013.16 1012.89 1012.69 1012.60 1012.63 1012.80 1013.12 1013.56 1014.08 1014.65 1015.22 1015.76
1014.41 1014.62 1014.79 1014.90 1014.97 1015.01 1015.02 1014.99 1014.94 1014.86 1014.77 1014.66 1014.55 1014.44 1014.34 1014.26 1014.20 1014.16 1014.14 1014.14 1014.16 1014.20 1014.24 1014.28 1014.31 1014.30 1014.23 1014.10 1013.90 1013.62 1013.29 1012.94 1012.59 1012.29 1012.09 1012.03 1012.12 1012.38 1012.79 1013.32 1013.93 1014.57 1015.18
1014.43 1014.67 1014.84 1014.96 1015.05 1015.11 1015.15 1015.16 1015.13 1015.06 1014.94 1014.79 1014.61 1014.42 1014.25 1014.11 1014.01 1013.97 1013.97 1014.02 1014.09 1014.18 1014.26 1014.33 1014.35 1014.33 1014.25 1014.10 1013.87 1013.57 1013.22 1012.84 1012.45 1012.11 1011.86 1011.74 1011.78 1011.98 1012.35 1012.87 1013.48 1014.13 1014.76
1014.38 1014.63 1014.82 1014.96 1015.07 1015.17 1015.25 1015.30 1015.30 1015.24 1015.11 1014.92 1014.69 1014.43 1014.19 1014.00 1013.88 1013.83 1013.87 1013.96 1014.09 1014.22 1014.34 1014.42 1014.45 1014.42 1014.32 1014.14 1013.91 1013.62 1013.28 1012.91 1012.55 1012.22 1011.97 1011.83 1011.84 1012.00 1012.33 1012.80 1013.37 1013.98 1014.58
1014.26 1014.53 1014.74 1014.89 1015.03 1015.17 1015.30 1015.40 1015.44 1015.42 1015.29 1015.08 1014.81 1014.50 1014.22 1013.98 1013.84 1013.80 1013.85 1013.98 1014.16 1014.33 1014.48 1014.58 1014.60 1014.56 1014.44 1014.27 1014.04 1013.78 1013.49 1013.18 1012.88 1012.61 1012.40 1012.28 1012.28 1012.42 1012.70 1013.10 1013.60 1014.14 1014.66
1014.07 1014.38 1014.60 1014.78 1014.94 1015.12 1015.29 1015.45 1015.55 1015.56 1015.47 1015.26 1014.97 1014.64 1014.32 1014.06 1013.90 1013.86 1013.94 1014.10 1014.30 1014.50 1014.67 1014.78 1014.80 1014.75 1014.62 1014.45 1014.25 1014.03 1013.80 1013.58 1013.36 1013.18 1013.04 1012.97 1012.99 1013.12 1013.35 1013.69 1014.09 1014.54 1014.97
1013.87 1014.20 1014.43 1014.62 1014.80 1015.01 1015.23 1015.44 1015.60 1015.67 1015.61 1015.43 1015.15 1014.82 1014.49 1014.22 1014.05 1014.00 1014.08 1014.26 1014.48 1014.70 1014.88 1014.99 1015.01 1014.94 1014.82 1014.66 1014.48 1014.30 1014.14 1014.00 1013.89 1013.80 1013.74 1013.74 1013.79 1013.91 1014.11 1014.38 1014.71 1015.06 1015.40
1013.68 1014.02 1014.25 1014.44 1014.62 1014.84 1015.10 1015.35 1015.56 1015.69 1015.69 1015.56 1015.32 1015.00 1014.67 1014.40 1014.22 1014.17 1014.25 1014.42 1014.65 1014.88 1015.06 1015.16 1015.18 1015.11 1014.98 1014.82 1014.66 1014.53 1014.43 1014.36 1014.33 1014.32 1014.35 1014.40 1014.49 1014.62 1014.80 1015.04 1015.31 1015.59 1015.86
Thickness
5774 5772 5770 5770 5771 5771 5771 5772 5772 5772 5773 5773 5774 5774 5774 5773 5772 5772 5772 5772 5771 5771 5770 5770 5769 5769 5769 5768 5768 5768 5767 5766 5764 5763 5762 5760 5759 5757 5755 5753 5752 5750 5747
5777 5772 5769 5769 5770 5770 5770 5770 5770 5770 5771 5771 5771 5771 5771 5771 5770 5770 5771 5770 5770 5769 5768 5768 5767 5767 5766 5766 5766 5766 5765 5764 5763 5762 5761 5760 5757 5756 5754 5753 5752 5748 5746
5779 5773 5770 5769 5769 5769 5769 5769 5768 5768 5768 5769 5769 5768 5768 5768 5769 5769 5769 5769 5768 5767 5767 5766 5766 5765 5764 5764 5764 5764 5764 5763 5762 5762 5761 5760 5756 5754 5753 5751 5749 5747 5745
5780 5774 5770 5768 5768 5768 5767 5767 5767 5766 5766 5767 5766 5766 5766 5766 5767 5767 5767 5766 5766 5766 5765 5764 5764 5763 5762 5762 5763 5763 5763 5762 5762 5761 5762 5760 5756 5753 5751 5750 5748 5746 5744
5779 5774 5769 5768 5767 5767 5766 5765 5765 5764 5764 5764 5764 5764 5764 5764 5764 5765 5765 5764 5764 5764 5763 5763 5762 5761 5761 5761 5762 5762 5762 5762 5761 5761 5761 5759 5755 5752 5751 5749 5747 5745 5743
5780 5774 5769 5767 5766 5766 5765 5764 5763 5763 5762 5762 5762 5762 5762 5762 5762 5763 5763 5763 5763 5763 5762 5761 5761 5760 5760 5760 5761 5762 5762 5761 5762 5762 5761 5758 5754 5752 5750 5748 5746 5744 5743
5782 5776 5770 5767 5766 5765 5764 5763 5762 5762 5761 5761 5761 5761 5760 5760 5761 5761 5761 5761 5761 5761 5761 5760 5759 5759 5759 5760 5760 5761 5761 5761 5762 5763 5761 5757 5753 5751 5750 5748 5746 5744 5742
5784 5776 5770 5767 5766 5765 5765 5763 5762 5761 5761 5760 5760 5760 5760 5759 5759 5759 5759 5760 5760 5760 5760 5759 5759 5759 5759 5760 5760 5761 5762 5762 5764 5764 5761 5756 5753 5751 5750 5748 5746 5744 5742
5787 5779 5773 5769 5766 5765 5764 5763 5762 5761 5761 5760 5760 5759 5759 5759 5759 5758 5758 5758 5758 5758 5758 5759 5759 5759 5760 5760 5761 5762 5762 5763 5764 5764 5760 5756 5753 5752 5750 5748 5746 5744 5742
5787 5782 5777 5774 5771 5769 5766 5764 5763 5762 5761 5760 5760 5759 5759 5759 5759 5758 5758 5757 5758 5758 5758 5759 5759 5760 5760 5760 5761 5762 5763 5764 5765 5764 5760 5757 5754 5753 5750 5748 5746 5744 5743
5785 5784 5781 5778 5775 5774 5771 5766 5764 5763 5762 5761 5761 5760 5760 5761 5760 5759 5759 5758 5758 5758 5759 5759 5760 5760 5760 5761 5762 5763 5764 5765 5767 5765 5761 5758 5755 5753 5751 5749 5747 5745 5743
5781 5784 5784 5781 5779 5778 5775 5770 5768 5766 5764 5763 5763 5762 5761 5762 5763 5762 5761 5760 5760 5760 5760 5760 5761 5761 5761 5763 5764 5764 5765 5767 5767 5765 5761 5758 5756 5754 5752 5750 5748 5746 5744
5785 5785 5785 5783 5780 5778 5776 5774 5772 5770 5767 5766 5765 5765 5764 5764 5764 5764 5763 5761 5761 5761 5762 5762 5762 5763 5765 5766 5768 5767 5768 5769 5769 5766 5760 5758 5756 5755 5753 5751 5749 5747 5745
5788 5786 5786 5784 5780 5778 5776 5775 5774 5772 5770 5769 5767 5766 5766 5765 5766 5766 5765 5765 5765 5765 5765 5765 5766 5767 5768 5768 5769 5769 5769 5769 5768 5765 5761 5759 5757 5755 5754 5752 5749 5747 5746
5788 5788 5786 5784 5779 5777 5776 5775 5775 5773 5772 5770 5769 5768 5767 5766 5765 5766 5765 5766 5767 5767 5767 5767 5767 5768 5768 5769 5769 5769 5769 5768 5767 5765 5761 5758 5757 5756 5754 5752 5750 5748 5747
5791 5789 5788 5785 5781 5779 5776 5775 5775 5774 5772 5771 5769 5768 5767 5766 5766 5766 5766 5766 5767 5768 5768 5768 5768 5768 5767 5768 5768 5768 5768 5767 5766 5764 5761 5758 5757 5756 5754 5752 5750 5749 5747
5794 5792 5789 5787 5784 5781 5779 5778 5777 5776 5775 5773 5770 5769 5768 5767 5766 5766 5766 5766 5767 5768 5768 5769 5768 5768 5767 5768 5767 5767 5766 5766 5764 5763 5761 5759 5757 5755 5754 5752 5750 5749 5748
5798 5794 5792 5792 5786 5782 5780 5779 5779 5778 5776 5773 5771 5770 5769 5768 5768 5768 5768 5768 5768 5769 5769 5768 5768 5767 5766 5765 5765 5765 5765 5765 5764 5762 5761 5759 5757 5755 5753 5751 5750 5749 5747
5801 5796 5792 5791 5787 5785 5782 5780 5779 5777 5776 5775 5773 5772 5771 5770 5770 5769 5769 5769 5769 5770 5769 5769 5767 5766 5763 5763 5763 5764 5764 5764 5763 5762 5760 5759 5757 5755 5752 5750 5749 5748 5746
5804 5799 5795 5792 5789 5787 5784 5781 5779 5778 5778 5777 5775 5773 5772 5772 5771 5770 5770 5770 5770 5769 5768 5768 5766 5765 5764 5763 5763 5762 5762 5763 5762 5761 5759 5758 5756 5754 5752 5750 5748 5746 5744
5806 5800 5796 5793 5790 5787 5784 5780 5777 5776 5778 5777 5776 5775 5774 5773 5772 5771 5771 5770 5770 5769 5768 5768 5766 5764 5763 5764 5759 5756 5758 5760 5759 5758 5757 5756 5754 5752 5750 5748 5746 5744 5742
5807 5803 5799 5795 5792 5789 5787 5784 5782 5780 5780 5779 5778 5776 5775 5774 5773 5773 5771 5770 5770 5769 5767 5767 5765 5762 5763 5764 5759 5752 5747 5748 5752 5755 5753 5751 5750 5750 5748 5746 5744 5742 5739
5810 5806 5804 5799 5796 5792 5790 5787 5785 5782 5780 5778 5777 5776 5776 5775 5773 5772 5772 5771 5771 5770 5767 5767 5766 5763 5759 5762 5762 5756 5746 5740 5742 5746 5748 5746 5745 5744 5743 5742 5740 5737 5735
5816 5813 5808 5803 5799 5796 5793 5789 5784 5779 5776 5777 5778 5777 5777 5776 5775 5774 5773 5772 5771 5770 5768 5767 5767 5765 5762 5758 5760 5761 5758 5753 5742 5736 5739 5741 5740 5739 5738 5738 5735 5733 5731
5824 5817 5811 5806 5801 5798 5795 5791 5787 5783 5782 5782 5780 5777 5777 5776 5775 5774 5773 5772 5771 5770 5768 5767 5766 5765 5763 5760 5758 5757 5756 5753 5749 5739 5731 5731 5732 5733 5733 5732 5730 5728 5726
5828 5822 5815 5807 5802 5800 5796 5793 5789 5785 5783 5780 5779 5777 5777 5776 5776 5775 5774 5772 5771 5770 5769 5768 5766 5765 5763 5761 5759 5757 5753 5749 5744 5740 5733 5729 5726 5725 5726 5725 5724 5722 5720